| time (UTC) | temp F | wind direction | speed MPH | gust MPH | rain 1hr in | rain 24hr in | rain mn in | humidity % | barometer mb |
| 20260906170747 | 85 | 8 | 1.0 | 2.0 | 0.00 | 0.00 | 0.00 | 81 | 1053.4 |
| 20260906170242 | 85 | 354 | 2.0 | 3.0 | 0.00 | 0.00 | 0.00 | 82 | 1053.3 |
| 20260906165733 | 84 | 105 | 6.0 | 8.0 | 0.00 | 0.00 | 0.00 | 81 | 1053.5 |
| 20260906165232 | 85 | 344 | 1.0 | 2.0 | 0.00 | 0.00 | 0.00 | 83 | 1053.5 |
| 20260906164732 | 85 | 266 | 1.0 | 2.0 | 0.00 | 0.00 | 0.00 | 81 | 1053.5 |
| 20260906164227 | 85 | 80 | 2.0 | 5.0 | 0.00 | 0.00 | 0.00 | 81 | 1053.4 |
| 20260906163723 | 84 | 268 | 1.0 | 3.0 | 0.00 | 0.00 | 0.00 | 82 | 1053.3 |
| 20260906163219 | 84 | 261 | 1.0 | 2.0 | 0.00 | 0.00 | 0.00 | 84 | 1053.3 |
| 20260906162715 | 84 | 251 | 2.0 | 2.0 | 0.00 | 0.00 | 0.00 | 81 | 1053.1 |
| 20260906162210 | 84 | 128 | 2.0 | 9.0 | 0.00 | 0.00 | 0.00 | 86 | 1053.4 |
| 20260906161705 | 85 | 91 | 5.0 | 8.0 | 0.00 | 0.00 | 0.00 | 82 | 1053.3 |
| 20260906161204 | 84 | 87 | 2.0 | 3.0 | 0.00 | 0.00 | 0.00 | 82 | 1053.4 |
| 20260906160703 | 85 | 218 | 2.0 | 2.0 | 0.00 | 0.00 | 0.00 | 80 | 1053.3 |
| 20260906160203 | 84 | 72 | 1.0 | 2.0 | 0.00 | 0.00 | 0.00 | 82 | 1053.2 |
| 20260906155700 | 83 | 157 | 1.0 | 2.0 | 0.00 | 0.00 | 0.00 | 83 | 1053.5 |
| 20260906155156 | 84 | 72 | 2.0 | 5.0 | 0.00 | 0.00 | 0.00 | 83 | 1053.8 |
| 20260906154651 | 82 | 347 | 1.0 | 2.0 | 0.00 | 0.00 | 0.00 | 84 | 1053.7 |
| 20260906154151 | 82 | 32 | 1.0 | 3.0 | 0.00 | 0.00 | 0.00 | 85 | 1053.5 |
| 20260906153649 | 82 | 231 | 0.0 | 3.0 | 0.00 | 0.00 | 0.00 | 84 | 1053.7 |
| 20260906153144 | 82 | 304 | 0.0 | 2.0 | 0.00 | 0.00 | 0.00 | 84 | 1053.8 |
| 20260906152639 | 81 | 3 | 0.0 | 2.0 | 0.00 | 0.00 | 0.00 | 87 | 1053.7 |
| 20260906152139 | 81 | 298 | 0.0 | 1.0 | 0.00 | 0.00 | 0.00 | 85 | 1053.6 |
| 20260906151634 | 80 | 273 | 1.0 | 2.0 | 0.00 | 0.00 | 0.00 | 87 | 1053.8 |
| 20260906151130 | 80 | 306 | 2.0 | 3.0 | 0.00 | 0.00 | 0.00 | 87 | 1053.9 |
| 20260906150625 | 79 | 303 | 0.0 | 1.0 | 0.00 | 0.00 | 0.00 | 88 | 1053.9 |
| 20260906150120 | 79 | 76 | 2.0 | 3.0 | 0.00 | 0.00 | 0.00 | 90 | 1053.8 |
| 20260906145619 | 79 | 328 | 1.0 | 3.0 | 0.00 | 0.00 | 0.00 | 90 | 1053.7 |
| 20260906145114 | 78 | 13 | 1.0 | 2.0 | 0.00 | 0.00 | 0.00 | 89 | 1053.6 |
| 20260906144608 | 79 | 32 | 1.0 | 2.0 | 0.00 | 0.00 | 0.00 | 89 | 1053.7 |
| 20260906144103 | 78 | 247 | 1.0 | 2.0 | 0.00 | 0.00 | 0.00 | 91 | 1053.6 |
| 20260906143558 | 78 | 330 | 1.0 | 1.0 | 0.00 | 0.00 | 0.00 | 91 | 1053.8 |
| 20260906143055 | 77 | 313 | 0.0 | 2.0 | 0.00 | 0.00 | 0.00 | 92 | 1053.8 |
| 20260906142554 | 77 | 222 | 1.0 | 2.0 | 0.00 | 0.00 | 0.00 | 90 | 1054.0 |
| 20260906142049 | 78 | 315 | 1.0 | 1.0 | 0.00 | 0.00 | 0.00 | 90 | 1054.0 |
| 20260906141548 | 77 | 268 | 0.0 | 0.0 | 0.00 | 0.00 | 0.00 | 90 | 1054.0 |
| 20260906141044 | 77 | 349 | 1.0 | 3.0 | 0.00 | 0.00 | 0.00 | 92 | 1054.0 |
| 20260906140543 | 77 | 324 | 1.0 | 2.0 | 0.00 | 0.00 | 0.00 | 90 | 1054.0 |
| 20260906140037 | 78 | 357 | 1.0 | 3.0 | 0.00 | 0.00 | 0.00 | 90 | 1054.1 |
| 20260906135534 | 77 | 305 | 1.0 | 1.0 | 0.00 | 0.00 | 0.00 | 91 | 1053.8 |
| 20260906135030 | 78 | 301 | 0.0 | 2.0 | 0.00 | 0.00 | 0.00 | 89 | 1053.8 |
| 20260906134525 | 78 | 300 | 0.0 | 1.0 | 0.00 | 0.00 | 0.00 | 89 | 1054.0 |
| 20260906134020 | 78 | 339 | 1.0 | 1.0 | 0.00 | 0.00 | 0.00 | 89 | 1054.0 |
| 20260906133516 | 77 | 303 | 1.0 | 1.0 | 0.00 | 0.00 | 0.00 | 92 | 1053.9 |
| 20260906133011 | 76 | 292 | 1.0 | 2.0 | 0.00 | 0.00 | 0.00 | 92 | 1053.7 |
| 20260906132507 | 76 | 355 | 0.0 | 2.0 | 0.00 | 0.00 | 0.00 | 93 | 1053.7 |
| 20260906132002 | 76 | 61 | 2.0 | 3.0 | 0.00 | 0.00 | 0.00 | 92 | 1053.9 |
| 20260906131457 | 76 | 331 | 0.0 | 2.0 | 0.00 | 0.00 | 0.00 | 94 | 1053.7 |
| 20260906130953 | 75 | 312 | 1.0 | 2.0 | 0.00 | 0.00 | 0.00 | 94 | 1053.8 |
| 20260906130451 | 75 | 75 | 1.0 | 2.0 | 0.00 | 0.00 | 0.00 | 96 | 1053.9 |
| 20260906125946 | 75 | 334 | 1.0 | 3.0 | 0.00 | 0.00 | 0.00 | 95 | 1053.8 |
| 20260906125444 | 75 | 300 | 0.0 | 0.0 | 0.00 | 0.00 | 0.00 | 95 | 1053.9 |
| 20260906124943 | 74 | 330 | 0.0 | 2.0 | 0.00 | 0.00 | 0.00 | 95 | 1053.8 |
| 20260906124439 | 74 | 310 | 0.0 | 1.0 | 0.00 | 0.00 | 0.00 | 96 | 1053.7 |
| 20260906123939 | 74 | 305 | 0.0 | 1.0 | 0.00 | 0.00 | 0.00 | 96 | 1053.5 |
| 20260906123439 | 73 | 307 | 0.0 | 0.0 | 0.00 | 0.00 | 0.00 | 97 | 1053.5 |
| 20260906122933 | 73 | 281 | 1.0 | 1.0 | 0.00 | 0.00 | 0.00 | 98 | 1053.3 |
| 20260906122428 | 73 | 43 | 1.0 | 2.0 | 0.00 | 0.00 | 0.00 | 98 | 1053.4 |
| 20260906121925 | 73 | 335 | 1.0 | 3.0 | 0.00 | 0.00 | 0.00 | 98 | 1053.5 |
| 20260906121421 | 73 | 304 | 0.0 | 1.0 | 0.00 | 0.00 | 0.00 | 98 | 1053.3 |
| 20260906120917 | 72 | 286 | 0.0 | 1.0 | 0.00 | 0.00 | 0.00 | 98 | 1053.2 |
| 20260906120412 | 72 | 322 | 0.0 | 2.0 | 0.00 | 0.00 | 0.00 | 98 | 1053.2 |
| 20260906115908 | 72 | 303 | 1.0 | 1.0 | 0.00 | 0.00 | 0.00 | 98 | 1053.0 |
| 20260906115404 | 72 | 322 | 0.0 | 0.0 | 0.00 | 0.00 | 0.00 | 98 | 1052.9 |
| 20260906114903 | 73 | 301 | 0.0 | 0.0 | 0.00 | 0.00 | 0.00 | 97 | 1053.1 |
| 20260906114358 | 73 | 310 | 0.0 | 1.0 | 0.00 | 0.00 | 0.00 | 97 | 1052.9 |
| 20260906113854 | 73 | 323 | 1.0 | 2.0 | 0.00 | 0.00 | 0.00 | 97 | 1052.9 |
| 20260906113352 | 73 | 9 | 1.0 | 1.0 | 0.00 | 0.00 | 0.00 | 97 | 1052.6 |
| 20260906112848 | 73 | 311 | 1.0 | 2.0 | 0.00 | 0.00 | 0.00 | 97 | 1052.6 |
| 20260906112343 | 73 | 332 | 0.0 | 2.0 | 0.00 | 0.00 | 0.00 | 97 | 1052.6 |
| 20260906111838 | 73 | 73 | 1.0 | 3.0 | 0.00 | 0.00 | 0.00 | 97 | 1052.6 |
| 20260906111337 | 73 | 97 | 2.0 | 5.0 | 0.00 | 0.00 | 0.00 | 97 | 1052.5 |
| 20260906110827 | 73 | 26 | 1.0 | 3.0 | 0.00 | 0.00 | 0.00 | 97 | 1052.6 |
| 20260906110323 | 73 | 93 | 2.0 | 3.0 | 0.00 | 0.00 | 0.00 | 97 | 1052.6 |
| 20260906105822 | 73 | 348 | 0.0 | 2.0 | 0.00 | 0.00 | 0.00 | 97 | 1052.4 |
| 20260906105318 | 73 | 6 | 1.0 | 2.0 | 0.00 | 0.00 | 0.00 | 97 | 1052.7 |
| 20260906104813 | 73 | 30 | 1.0 | 2.0 | 0.00 | 0.00 | 0.00 | 97 | 1052.8 |
| 20260906104311 | 73 | 49 | 1.0 | 2.0 | 0.00 | 0.00 | 0.00 | 97 | 1052.7 |
| 20260906103809 | 73 | 1 | 2.0 | 5.0 | 0.00 | 0.00 | 0.00 | 96 | 1052.8 |
| 20260906103303 | 73 | 69 | 2.0 | 2.0 | 0.00 | 0.00 | 0.00 | 97 | 1052.9 |
| 20260906102759 | 73 | 50 | 1.0 | 2.0 | 0.00 | 0.00 | 0.00 | 97 | 1052.8 |
| 20260906102258 | 73 | 13 | 2.0 | 3.0 | 0.00 | 0.00 | 0.00 | 97 | 1052.9 |
| 20260906101754 | 73 | 309 | 0.0 | 2.0 | 0.00 | 0.00 | 0.00 | 97 | 1052.9 |
| 20260906101248 | 73 | 65 | 2.0 | 3.0 | 0.00 | 0.00 | 0.00 | 97 | 1052.9 |
| 20260906100744 | 74 | 83 | 2.0 | 2.0 | 0.00 | 0.00 | 0.00 | 97 | 1052.8 |
| 20260906100243 | 74 | 173 | 3.0 | 3.0 | 0.00 | 0.00 | 0.00 | 96 | 1052.8 |
| 20260906095739 | 74 | 209 | 2.0 | 3.0 | 0.00 | 0.00 | 0.00 | 97 | 1052.7 |
| 20260906095234 | 74 | 114 | 4.0 | 5.0 | 0.00 | 0.00 | 0.00 | 97 | 1052.6 |
| 20260906094733 | 74 | 336 | 1.0 | 2.0 | 0.00 | 0.00 | 0.00 | 97 | 1052.9 |
| 20260906094228 | 74 | 326 | 0.0 | 1.0 | 0.00 | 0.00 | 0.00 | 97 | 1052.7 |
| 20260906093724 | 74 | 296 | 0.0 | 1.0 | 0.00 | 0.00 | 0.00 | 97 | 1052.6 |
| 20260906093214 | 74 | 76 | 2.0 | 3.0 | 0.00 | 0.00 | 0.00 | 97 | 1052.5 |
| 20260906092709 | 74 | 328 | 0.0 | 1.0 | 0.00 | 0.00 | 0.00 | 97 | 1052.4 |
| 20260906092208 | 74 | 16 | 2.0 | 2.0 | 0.00 | 0.00 | 0.00 | 97 | 1052.5 |
| 20260906091705 | 74 | 311 | 0.0 | 0.0 | 0.00 | 0.00 | 0.00 | 97 | 1052.5 |
| 20260906091201 | 74 | 311 | 0.0 | 0.0 | 0.00 | 0.00 | 0.00 | 97 | 1052.3 |
| 20260906090657 | 74 | 52 | 2.0 | 3.0 | 0.00 | 0.00 | 0.00 | 97 | 1052.3 |
| 20260906090155 | 74 | 321 | 0.0 | 1.0 | 0.00 | 0.00 | 0.00 | 97 | 1052.5 |
| 20260906085655 | 74 | 346 | 2.0 | 3.0 | 0.00 | 0.00 | 0.00 | 97 | 1052.3 |
| 20260906085149 | 75 | 10 | 0.0 | 3.0 | 0.00 | 0.00 | 0.00 | 96 | 1052.2 |
| 20260906084644 | 75 | 39 | 3.0 | 6.0 | 0.00 | 0.00 | 0.00 | 96 | 1052.1 |
| 20260906084143 | 75 | 144 | 2.0 | 5.0 | 0.00 | 0.00 | 0.00 | 96 | 1052.0 |
| 20260906083638 | 75 | 108 | 3.0 | 5.0 | 0.00 | 0.00 | 0.00 | 96 | 1052.1 |
| 20260906083133 | 75 | 122 | 3.0 | 5.0 | 0.00 | 0.00 | 0.00 | 97 | 1052.2 |
| 20260906082629 | 75 | 47 | 2.0 | 3.0 | 0.00 | 0.00 | 0.00 | 97 | 1052.1 |
| 20260906082124 | 75 | 87 | 3.0 | 3.0 | 0.00 | 0.00 | 0.00 | 97 | 1052.2 |
| 20260906081620 | 75 | 274 | 1.0 | 2.0 | 0.00 | 0.00 | 0.00 | 98 | 1052.2 |
| 20260906081115 | 75 | 92 | 1.0 | 2.0 | 0.00 | 0.00 | 0.00 | 97 | 1052.3 |
| 20260906080611 | 75 | 83 | 2.0 | 3.0 | 0.00 | 0.00 | 0.00 | 97 | 1052.2 |
| 20260906080107 | 75 | 91 | 3.0 | 7.0 | 0.00 | 0.00 | 0.00 | 97 | 1052.0 |
| 20260906075601 | 75 | 79 | 4.0 | 7.0 | 0.00 | 0.00 | 0.00 | 97 | 1052.0 |
| 20260906075055 | 75 | 346 | 1.0 | 3.0 | 0.00 | 0.00 | 0.00 | 97 | 1051.9 |
| 20260906074550 | 75 | 79 | 6.0 | 9.0 | 0.00 | 0.00 | 0.00 | 97 | 1051.9 |
| 20260906074043 | 75 | 90 | 4.0 | 6.0 | 0.00 | 0.00 | 0.00 | 97 | 1052.1 |
| 20260906073538 | 76 | 61 | 4.0 | 5.0 | 0.00 | 0.00 | 0.00 | 97 | 1052.1 |
| 20260906073034 | 76 | 119 | 5.0 | 8.0 | 0.00 | 0.00 | 0.00 | 97 | 1052.0 |
| 20260906072529 | 76 | 88 | 2.0 | 3.0 | 0.00 | 0.00 | 0.00 | 97 | 1052.0 |
| 20260906072026 | 76 | 79 | 3.0 | 5.0 | 0.00 | 0.00 | 0.00 | 97 | 1052.1 |
| 20260906071521 | 76 | 75 | 6.0 | 8.0 | 0.00 | 0.00 | 0.00 | 97 | 1052.1 |
| 20260906071016 | 76 | 58 | 2.0 | 6.0 | 0.00 | 0.00 | 0.00 | 97 | 1052.2 |
| 20260906070513 | 77 | 87 | 3.0 | 5.0 | 0.00 | 0.00 | 0.00 | 97 | 1052.1 |
| 20260906070008 | 77 | 79 | 2.0 | 8.0 | 0.00 | 0.00 | 0.00 | 97 | 1052.2 |
| 20260906065508 | 77 | 77 | 2.0 | 6.0 | 0.00 | 0.00 | 0.00 | 98 | 1051.9 |
| 20260906065003 | 77 | 82 | 2.0 | 3.0 | 0.00 | 0.00 | 0.00 | 98 | 1051.9 |
| 20260906064459 | 77 | 26 | 2.0 | 3.0 | 0.00 | 0.00 | 0.00 | 98 | 1052.0 |
| 20260906063954 | 77 | 103 | 3.0 | 5.0 | 0.00 | 0.00 | 0.00 | 98 | 1052.1 |
| 20260906063450 | 77 | 112 | 2.0 | 5.0 | 0.00 | 0.00 | 0.00 | 98 | 1052.1 |
| 20260906062949 | 77 | 40 | 2.0 | 3.0 | 0.00 | 0.00 | 0.00 | 98 | 1052.1 |
| 20260906062445 | 77 | 33 | 1.0 | 5.0 | 0.00 | 0.00 | 0.00 | 98 | 1052.2 |
| 20260906061940 | 77 | 13 | 2.0 | 5.0 | 0.00 | 0.00 | 0.00 | 98 | 1052.1 |
| 20260906061435 | 77 | 83 | 1.0 | 2.0 | 0.00 | 0.00 | 0.00 | 98 | 1052.2 |
| 20260906060930 | 78 | 99 | 2.0 | 2.0 | 0.00 | 0.00 | 0.00 | 98 | 1052.1 |
| 20260906060427 | 78 | 72 | 2.0 | 5.0 | 0.00 | 0.00 | 0.00 | 98 | 1052.0 |
| 20260906055923 | 78 | 287 | 1.0 | 3.0 | 0.00 | 0.00 | 0.00 | 98 | 1052.2 |
| 20260906055419 | 78 | 77 | 1.0 | 3.0 | 0.00 | 0.00 | 0.00 | 97 | 1052.0 |
| 20260906054914 | 78 | 65 | 3.0 | 8.0 | 0.00 | 0.00 | 0.00 | 97 | 1052.0 |
| 20260906054409 | 78 | 132 | 3.0 | 5.0 | 0.00 | 0.00 | 0.00 | 97 | 1052.1 |
| 20260906053905 | 78 | 7 | 1.0 | 6.0 | 0.00 | 0.00 | 0.00 | 97 | 1051.9 |
| 20260906053401 | 78 | 65 | 5.0 | 7.0 | 0.00 | 0.00 | 0.00 | 96 | 1052.1 |
| 20260906052856 | 79 | 85 | 2.0 | 6.0 | 0.00 | 0.00 | 0.00 | 96 | 1052.0 |
| 20260906052352 | 79 | 112 | 2.0 | 5.0 | 0.00 | 0.00 | 0.00 | 96 | 1052.0 |
| 20260906051849 | 79 | 84 | 5.0 | 8.0 | 0.00 | 0.00 | 0.00 | 96 | 1052.0 |
| 20260906051348 | 79 | 105 | 3.0 | 9.0 | 0.00 | 0.00 | 0.00 | 96 | 1052.0 |
| 20260906050845 | 79 | 100 | 3.0 | 5.0 | 0.00 | 0.00 | 0.00 | 95 | 1052.1 |
| 20260906050339 | 79 | 61 | 2.0 | 5.0 | 0.00 | 0.00 | 0.00 | 95 | 1052.4 |
| 20260906045838 | 79 | 91 | 3.0 | 3.0 | 0.00 | 0.00 | 0.00 | 95 | 1052.2 |
| 20260906045332 | 79 | 93 | 4.0 | 6.0 | 0.00 | 0.00 | 0.00 | 95 | 1052.2 |
| 20260906044829 | 79 | 80 | 4.0 | 5.0 | 0.00 | 0.00 | 0.00 | 95 | 1052.0 |
| 20260906044329 | 80 | 111 | 3.0 | 6.0 | 0.00 | 0.00 | 0.00 | 94 | 1052.0 |
| 20260906043826 | 80 | 64 | 3.0 | 6.0 | 0.00 | 0.00 | 0.00 | 94 | 1051.9 |
| 20260906043321 | 80 | 81 | 2.0 | 7.0 | 0.00 | 0.00 | 0.00 | 93 | 1051.8 |
| 20260906042820 | 80 | 102 | 5.0 | 7.0 | 0.00 | 0.00 | 0.00 | 94 | 1051.8 |
| 20260906042320 | 80 | 54 | 3.0 | 5.0 | 0.00 | 0.00 | 0.00 | 93 | 1051.7 |
| 20260906041815 | 80 | 67 | 2.0 | 3.0 | 0.00 | 0.00 | 0.00 | 93 | 1051.7 |
| 20260906041310 | 80 | 102 | 1.0 | 3.0 | 0.00 | 0.00 | 0.00 | 93 | 1051.7 |
| 20260906040805 | 80 | 106 | 4.0 | 5.0 | 0.00 | 0.00 | 0.00 | 93 | 1051.6 |
| 20260906040301 | 80 | 94 | 3.0 | 5.0 | 0.00 | 0.00 | 0.00 | 93 | 1051.7 |
| 20260906035756 | 80 | 48 | 4.0 | 6.0 | 0.00 | 0.00 | 0.00 | 92 | 1051.4 |
| 20260906035252 | 81 | 106 | 4.0 | 6.0 | 0.00 | 0.00 | 0.00 | 92 | 1051.7 |
| 20260906034752 | 81 | 96 | 3.0 | 5.0 | 0.00 | 0.00 | 0.00 | 92 | 1051.5 |
| 20260906034252 | 81 | 112 | 3.0 | 5.0 | 0.00 | 0.00 | 0.00 | 92 | 1051.3 |
| 20260906033748 | 81 | 113 | 3.0 | 5.0 | 0.00 | 0.00 | 0.00 | 92 | 1051.5 |
| 20260906033247 | 80 | 93 | 2.0 | 5.0 | 0.00 | 0.00 | 0.00 | 92 | 1051.5 |
| 20260906032744 | 81 | 86 | 2.0 | 3.0 | 0.00 | 0.00 | 0.00 | 92 | 1051.4 |
| 20260906032243 | 81 | 57 | 3.0 | 3.0 | 0.00 | 0.00 | 0.00 | 91 | 1051.6 |
| 20260906031738 | 81 | 102 | 3.0 | 3.0 | 0.00 | 0.00 | 0.00 | 91 | 1051.8 |
| 20260906031234 | 81 | 62 | 2.0 | 2.0 | 0.00 | 0.00 | 0.00 | 91 | 1051.5 |
| 20260906030729 | 81 | 81 | 2.0 | 2.0 | 0.00 | 0.00 | 0.00 | 90 | 1051.7 |
| 20260906030224 | 81 | 97 | 2.0 | 3.0 | 0.00 | 0.00 | 0.00 | 89 | 1051.6 |
| 20260906025723 | 82 | 78 | 1.0 | 2.0 | 0.00 | 0.00 | 0.00 | 89 | 1051.7 |
| 20260906025218 | 82 | 59 | 2.0 | 2.0 | 0.00 | 0.00 | 0.00 | 89 | 1051.4 |
| 20260906024717 | 82 | 66 | 1.0 | 2.0 | 0.00 | 0.00 | 0.00 | 89 | 1051.2 |
| 20260906024216 | 82 | 334 | 0.0 | 1.0 | 0.00 | 0.00 | 0.00 | 89 | 1051.4 |
| 20260906023713 | 81 | 95 | 2.0 | 2.0 | 0.00 | 0.00 | 0.00 | 90 | 1051.2 |
| 20260906023212 | 81 | 331 | 0.0 | 2.0 | 0.00 | 0.00 | 0.00 | 90 | 1050.9 |
| 20260906022707 | 81 | 54 | 2.0 | 2.0 | 0.00 | 0.00 | 0.00 | 90 | 1051.3 |
| 20260906022158 | 81 | 313 | 0.0 | 1.0 | 0.00 | 0.00 | 0.00 | 90 | 1050.9 |
| 20260906021654 | 81 | 318 | 0.0 | 1.0 | 0.00 | 0.00 | 0.00 | 90 | 1050.8 |
| 20260906021152 | 81 | 358 | 1.0 | 1.0 | 0.00 | 0.00 | 0.00 | 89 | 1050.8 |
| 20260906020647 | 82 | 310 | 0.0 | 0.0 | 0.00 | 0.00 | 0.00 | 89 | 1050.6 |
| 20260906020142 | 82 | 247 | 1.0 | 2.0 | 0.00 | 0.00 | 0.00 | 88 | 1050.5 |
| 20260906015636 | 82 | 122 | 2.0 | 2.0 | 0.00 | 0.00 | 0.00 | 87 | 1050.6 |
| 20260906015134 | 83 | 81 | 2.0 | 3.0 | 0.00 | 0.00 | 0.00 | 87 | 1050.5 |
| 20260906014629 | 83 | 103 | 3.0 | 5.0 | 0.00 | 0.00 | 0.00 | 87 | 1050.3 |
| 20260906014125 | 83 | 23 | 1.0 | 2.0 | 0.00 | 0.00 | 0.00 | 87 | 1050.4 |
| 20260906013620 | 83 | 91 | 2.0 | 3.0 | 0.00 | 0.00 | 0.00 | 86 | 1050.1 |
| 20260906013116 | 84 | 114 | 4.0 | 5.0 | 0.00 | 0.00 | 0.00 | 86 | 1050.1 |
| 20260906012611 | 84 | 77 | 3.0 | 3.0 | 0.00 | 0.00 | 0.00 | 85 | 1050.2 |
| 20260906012111 | 84 | 94 | 2.0 | 5.0 | 0.00 | 0.00 | 0.00 | 86 | 1050.0 |
| 20260906011607 | 84 | 134 | 3.0 | 3.0 | 0.00 | 0.00 | 0.00 | 86 | 1050.1 |
| 20260906011106 | 84 | 109 | 3.0 | 3.0 | 0.00 | 0.00 | 0.00 | 86 | 1050.0 |
| 20260906010602 | 84 | 86 | 3.0 | 3.0 | 0.00 | 0.00 | 0.00 | 85 | 1050.3 |
| 20260906010058 | 84 | 68 | 3.0 | 6.0 | 0.00 | 0.00 | 0.00 | 84 | 1050.1 |
| 20260906005557 | 85 | 73 | 3.0 | 5.0 | 0.00 | 0.00 | 0.00 | 84 | 1050.2 |
| 20260906005056 | 85 | 97 | 5.0 | 5.0 | 0.00 | 0.00 | 0.00 | 83 | 1050.0 |
| 20260906004556 | 86 | 95 | 3.0 | 3.0 | 0.00 | 0.00 | 0.00 | 82 | 1050.1 |
| 20260906004051 | 86 | 104 | 4.0 | 6.0 | 0.00 | 0.00 | 0.00 | 82 | 1050.1 |
| 20260906003540 | 86 | 95 | 4.0 | 6.0 | 0.00 | 0.00 | 0.00 | 81 | 1049.9 |
| 20260906003037 | 86 | 126 | 4.0 | 6.0 | 0.00 | 0.00 | 0.00 | 81 | 1050.1 |
| 20260906002536 | 86 | 127 | 3.0 | 5.0 | 0.00 | 0.00 | 0.00 | 81 | 1049.9 |
| 20260906002031 | 87 | 61 | 5.0 | 6.0 | 0.00 | 0.00 | 0.00 | 80 | 1050.1 |
| 20260906001526 | 87 | 104 | 4.0 | 6.0 | 0.00 | 0.00 | 0.00 | 79 | 1049.9 |
| 20260906001021 | 87 | 98 | 4.0 | 5.0 | 0.00 | 0.00 | 0.00 | 79 | 1049.9 |
| 20260906000517 | 88 | 90 | 3.0 | 10.0 | 0.00 | 0.00 | 0.00 | 78 | 1050.2 |
| 20260906000012 | 88 | 108 | 4.0 | 8.0 | 0.00 | 0.00 | 0.00 | 77 | 1049.9 |
| 20260905235506 | 88 | 107 | 3.0 | 5.0 | 0.00 | 0.00 | 0.00 | 78 | 1050.0 |
| 20260905235001 | 88 | 120 | 5.0 | 9.0 | 0.00 | 0.00 | 0.00 | 77 | 1049.9 |
| 20260905234456 | 88 | 89 | 4.0 | 7.0 | 0.00 | 0.00 | 0.00 | 78 | 1049.9 |
| 20260905233955 | 88 | 100 | 4.0 | 8.0 | 0.00 | 0.00 | 0.00 | 78 | 1049.9 |
| 20260905233452 | 88 | 117 | 7.0 | 9.0 | 0.00 | 0.00 | 0.00 | 77 | 1049.8 |
| 20260905232950 | 89 | 101 | 4.0 | 6.0 | 0.00 | 0.00 | 0.00 | 77 | 1049.8 |
| 20260905232447 | 89 | 139 | 4.0 | 10.0 | 0.00 | 0.00 | 0.00 | 77 | 1049.9 |
| 20260905231942 | 89 | 46 | 8.0 | 9.0 | 0.00 | 0.00 | 0.00 | 76 | 1049.9 |
| 20260905231437 | 89 | 84 | 2.0 | 8.0 | 0.00 | 0.00 | 0.00 | 76 | 1049.7 |
| 20260905230928 | 89 | 67 | 4.0 | 9.0 | 0.00 | 0.00 | 0.00 | 75 | 1049.8 |
| 20260905230426 | 89 | 100 | 4.0 | 8.0 | 0.00 | 0.00 | 0.00 | 76 | 1049.8 |
| 20260905225925 | 89 | 107 | 6.0 | 11.0 | 0.00 | 0.00 | 0.00 | 76 | 1049.8 |
| 20260905225420 | 89 | 104 | 7.0 | 9.0 | 0.00 | 0.00 | 0.00 | 76 | 1049.5 |
| 20260905224915 | 90 | 110 | 8.0 | 10.0 | 0.00 | 0.00 | 0.00 | 74 | 1049.8 |
| 20260905224411 | 90 | 105 | 7.0 | 9.0 | 0.00 | 0.00 | 0.00 | 74 | 1049.7 |
| 20260905223905 | 90 | 128 | 5.0 | 10.0 | 0.00 | 0.00 | 0.00 | 75 | 1049.6 |
| 20260905223403 | 90 | 83 | 5.0 | 8.0 | 0.00 | 0.00 | 0.00 | 74 | 1049.9 |
| 20260905222857 | 90 | 91 | 7.0 | 8.0 | 0.00 | 0.00 | 0.00 | 74 | 1049.6 |
| 20260905222356 | 89 | 67 | 6.0 | 8.0 | 0.00 | 0.00 | 0.00 | 74 | 1049.7 |
| 20260905221852 | 89 | 78 | 4.0 | 10.0 | 0.00 | 0.00 | 0.00 | 75 | 1049.6 |
| 20260905221349 | 90 | 110 | 8.0 | 10.0 | 0.00 | 0.00 | 0.00 | 74 | 1049.4 |
| 20260905220844 | 90 | 93 | 5.0 | 10.0 | 0.00 | 0.00 | 0.00 | 75 | 1049.7 |
| 20260905220341 | 90 | 95 | 8.0 | 10.0 | 0.00 | 0.00 | 0.00 | 74 | 1049.9 |
| 20260905215834 | 90 | 87 | 6.0 | 9.0 | 0.00 | 0.00 | 0.00 | 74 | 1049.8 |
| 20260905215330 | 91 | 99 | 7.0 | 8.0 | 0.00 | 0.00 | 0.00 | 72 | 1049.8 |
| 20260905214827 | 91 | 63 | 4.0 | 8.0 | 0.00 | 0.00 | 0.00 | 73 | 1049.7 |
| 20260905214321 | 91 | 95 | 7.0 | 8.0 | 0.00 | 0.00 | 0.00 | 72 | 1049.7 |
| 20260905213816 | 90 | 69 | 5.0 | 8.0 | 0.00 | 0.00 | 0.00 | 73 | 1049.9 |
| 20260905213312 | 90 | 104 | 3.0 | 8.0 | 0.00 | 0.00 | 0.00 | 75 | 1050.0 |
| 20260905212807 | 90 | 124 | 4.0 | 7.0 | 0.00 | 0.00 | 0.00 | 74 | 1050.1 |
| 20260905212306 | 90 | 134 | 5.0 | 7.0 | 0.00 | 0.00 | 0.00 | 74 | 1049.9 |
| 20260905211802 | 90 | 113 | 5.0 | 6.0 | 0.00 | 0.00 | 0.00 | 72 | 1050.0 |
| 20260905211256 | 90 | 100 | 7.0 | 9.0 | 0.00 | 0.00 | 0.00 | 72 | 1050.1 |
| 20260905210753 | 91 | 120 | 6.0 | 8.0 | 0.00 | 0.00 | 0.00 | 71 | 1050.2 |
| 20260905210253 | 90 | 79 | 5.0 | 8.0 | 0.00 | 0.00 | 0.00 | 72 | 1050.3 |
| 20260905205751 | 91 | 92 | 5.0 | 9.0 | 0.00 | 0.00 | 0.00 | 72 | 1050.1 |
| 20260905205246 | 90 | 120 | 5.0 | 7.0 | 0.00 | 0.00 | 0.00 | 73 | 1049.7 |
| 20260905204746 | 90 | 98 | 7.0 | 11.0 | 0.00 | 0.00 | 0.00 | 73 | 1049.7 |
| 20260905204242 | 90 | 65 | 9.0 | 11.0 | 0.00 | 0.00 | 0.00 | 73 | 1049.6 |
| 20260905203741 | 90 | 103 | 7.0 | 9.0 | 0.00 | 0.00 | 0.00 | 74 | 1049.6 |
| 20260905203237 | 91 | 126 | 5.0 | 14.0 | 0.00 | 0.00 | 0.00 | 74 | 1049.7 |
| 20260905202732 | 91 | 103 | 6.0 | 8.0 | 0.00 | 0.00 | 0.00 | 74 | 1049.8 |
| 20260905202227 | 90 | 122 | 5.0 | 10.0 | 0.00 | 0.00 | 0.00 | 75 | 1049.8 |
| 20260905201722 | 90 | 104 | 6.0 | 10.0 | 0.00 | 0.00 | 0.00 | 77 | 1049.9 |
| 20260905201217 | 91 | 91 | 9.0 | 9.0 | 0.00 | 0.00 | 0.00 | 73 | 1050.0 |
| 20260905200712 | 90 | 93 | 5.0 | 8.0 | 0.00 | 0.00 | 0.00 | 77 | 1050.1 |
| 20260905200208 | 89 | 95 | 5.0 | 8.0 | 0.00 | 0.00 | 0.00 | 76 | 1050.2 |
| 20260905195706 | 90 | 73 | 5.0 | 10.0 | 0.00 | 0.00 | 0.00 | 76 | 1050.5 |
| 20260905195201 | 90 | 95 | 6.0 | 7.0 | 0.00 | 0.00 | 0.00 | 76 | 1050.4 |
| 20260905194656 | 91 | 24 | 3.0 | 6.0 | 0.00 | 0.00 | 0.00 | 76 | 1050.3 |
| 20260905194155 | 90 | 230 | 3.0 | 6.0 | 0.00 | 0.00 | 0.00 | 77 | 1050.4 |
| 20260905193650 | 90 | 105 | 5.0 | 7.0 | 0.00 | 0.00 | 0.00 | 78 | 1050.4 |
| 20260905193145 | 90 | 89 | 6.0 | 8.0 | 0.00 | 0.00 | 0.00 | 77 | 1050.8 |
| 20260905192640 | 89 | 87 | 5.0 | 9.0 | 0.00 | 0.00 | 0.00 | 78 | 1050.7 |
| 20260905192137 | 89 | 106 | 3.0 | 7.0 | 0.00 | 0.00 | 0.00 | 78 | 1050.8 |
| 20260905191637 | 90 | 95 | 7.0 | 8.0 | 0.00 | 0.00 | 0.00 | 77 | 1050.9 |
| 20260905191134 | 89 | 114 | 6.0 | 7.0 | 0.00 | 0.00 | 0.00 | 75 | 1051.2 |
| 20260905190632 | 89 | 122 | 7.0 | 9.0 | 0.00 | 0.00 | 0.00 | 75 | 1051.3 |
| 20260905190127 | 89 | 7 | 2.0 | 8.0 | 0.00 | 0.00 | 0.00 | 78 | 1051.7 |
| 20260905185625 | 89 | 104 | 4.0 | 7.0 | 0.00 | 0.00 | 0.00 | 78 | 1051.7 |
| 20260905185120 | 89 | 336 | 2.0 | 5.0 | 0.00 | 0.00 | 0.00 | 77 | 1051.6 |
| 20260905184615 | 89 | 94 | 5.0 | 7.0 | 0.00 | 0.00 | 0.00 | 78 | 1051.8 |
| 20260905184114 | 89 | 99 | 3.0 | 6.0 | 0.00 | 0.00 | 0.00 | 78 | 1051.9 |
| 20260905183613 | 89 | 109 | 5.0 | 8.0 | 0.00 | 0.00 | 0.00 | 79 | 1051.9 |
| 20260905183108 | 88 | 86 | 2.0 | 6.0 | 0.00 | 0.00 | 0.00 | 80 | 1051.8 |
| 20260905182607 | 87 | 94 | 4.0 | 6.0 | 0.00 | 0.00 | 0.00 | 79 | 1051.9 |
| 20260905182102 | 88 | 25 | 1.0 | 7.0 | 0.00 | 0.00 | 0.00 | 81 | 1051.9 |
| 20260905181602 | 87 | 85 | 4.0 | 7.0 | 0.00 | 0.00 | 0.00 | 80 | 1051.9 |
| 20260905181101 | 88 | 100 | 2.0 | 5.0 | 0.00 | 0.00 | 0.00 | 81 | 1052.2 |
| 20260905180556 | 87 | 193 | 1.0 | 3.0 | 0.00 | 0.00 | 0.00 | 81 | 1051.9 |
| 20260905180051 | 87 | 101 | 5.0 | 7.0 | 0.00 | 0.00 | 0.00 | 81 | 1051.9 |
| 20260905175550 | 87 | 13 | 4.0 | 8.0 | 0.00 | 0.00 | 0.00 | 80 | 1052.1 |
| 20260905175046 | 88 | 62 | 3.0 | 5.0 | 0.00 | 0.00 | 0.00 | 80 | 1052.0 |
| 20260905174542 | 87 | 274 | 1.0 | 3.0 | 0.00 | 0.00 | 0.00 | 82 | 1051.9 |
| 20260905174037 | 88 | 26 | 1.0 | 7.0 | 0.00 | 0.00 | 0.00 | 80 | 1052.0 |
| 20260905173534 | 89 | 43 | 3.0 | 8.0 | 0.00 | 0.00 | 0.00 | 79 | 1052.0 |
| 20260905173029 | 89 | 10 | 4.0 | 6.0 | 0.00 | 0.00 | 0.00 | 78 | 1052.0 |
| 20260905172527 | 88 | 276 | 1.0 | 5.0 | 0.00 | 0.00 | 0.00 | 78 | 1052.2 |
| 20260905172023 | 88 | 12 | 2.0 | 6.0 | 0.00 | 0.00 | 0.00 | 81 | 1052.2 |
| 20260905171519 | 88 | 260 | 3.0 | 7.0 | 0.00 | 0.00 | 0.00 | 81 | 1052.1 |
| 20260905171015 | 87 | 243 | 4.0 | 6.0 | 0.00 | 0.00 | 0.00 | 83 | 1052.3 |